[[{"header":{"parameterUnit":"m.s-1","parameterCategory":1,"la1":30.2991,"la2":30.254,"lo1":-89.0895,"lo2":-89.0444,"dy":0.0017,"dx":0.0017,"nx":28,"ny":28,"refTime":"2025-04-28T03:00:00:Z","depth":0,"parameterNumber":2,"parameterNumberName":"U-component_of_WINDS"},"data":[0,0,0,0,0,0,0,0,0,0,0,0,0,0,0,0,0,0,0,0,0,0,0,0,0,0,0,0,0,0,0,0,0,0,0,0,0,0,0,0,0,0,0,0,0,0,0,0,0,0,0,0,0,0,0,0,0,0,-3.6336,-3.6336,0,-3.6337,-3.6337,-3.6337,-3.6275,-3.6273,-3.6271,-3.627,-3.6271,-3.6273,-3.6274,0,0,0,0,0,0,0,0,0,0,0,0,0,-3.6282,-3.6283,-3.6336,-3.6336,-3.6336,-3.6337,-3.6337,-3.6337,-3.6275,-3.6273,-3.6271,-3.6269,-3.6271,-3.6273,-3.6275,0,0,0,0,0,0,0,0,0,0,0,0,0,-3.6296,-3.6283,-3.6336,-3.6305,-3.6302,-3.6337,-3.6337,-3.6337,-3.6275,-3.6273,-3.627,-3.6268,-3.627,-3.6272,-3.6275,-3.6339,0,0,-3.6282,-3.6283,0,0,0,0,0,0,0,0,-3.6296,-3.6298,-3.631,-3.6307,-3.6304,-3.6303,-3.6318,-3.6338,-3.6276,-3.6286,-3.627,-3.6267,-3.6284,-3.6285,-3.6291,-3.6339,-3.6339,-3.6282,-3.6284,-3.6285,-3.6285,0,0,0,0,0,0,0,-3.6295,-3.6298,-3.6336,-3.631,-3.6307,-3.6292,-3.6291,-3.6322,-3.6299,-3.6285,-3.628,-3.6281,-3.6282,-3.6289,-3.629,-3.6339,-3.6282,-3.6284,-3.6286,-3.6287,-3.6441,-3.6444,0,0,0,0,0,0,-3.6298,-3.6298,-3.6336,-3.6336,-3.6294,-3.6295,-3.6294,-3.6306,-3.6298,-3.6295,-3.6283,-3.6278,-3.6286,-3.6288,-3.629,-3.6364,-3.6285,-3.6287,-3.6288,-3.6438,-3.6442,-3.6445,0,0,0,0,0,0,-3.6297,-3.6302,-3.6336,-3.6316,-3.6319,-3.6298,-3.6312,-3.6307,-3.6314,-3.6297,-3.6293,-3.6294,-3.6284,-3.6287,-3.6327,-3.6363,-3.6288,-3.629,-3.6435,-3.6439,-3.6443,-3.6513,0,0,0,0,0,0,-3.6295,-3.6302,-3.6325,-3.6317,-3.632,-3.6373,-3.6315,-3.6309,-3.6318,-3.6311,-3.6306,-3.6303,-3.6282,-3.6324,-3.633,-3.6365,-3.6292,-3.6432,-3.6437,-3.6442,-3.6507,-3.6519,-3.6529,0,0,0,0,0,-3.6294,-3.6345,-3.6327,-3.6332,-3.6349,-3.6375,-3.6377,-3.6352,-3.6321,-3.6345,-3.6335,-3.6303,-3.6359,-3.6329,-3.6335,-3.6371,-3.6429,-3.6436,-3.6441,-3.6503,-3.6517,-3.6529,0,0,0,0,0,0,-3.6357,-3.6343,-3.6323,-3.6372,-3.6376,-3.6364,-3.6393,-3.6368,-3.638,-3.6373,-3.6342,-3.6342,-3.6387,-3.6384,-3.635,-3.6434,-3.6389,-3.6396,-3.6433,-3.6447,-3.6457,-3.6456,-3.6294,0,0,0,0,0,-3.6377,-3.6399,-3.6386,-3.6431,-3.6434,-3.6414,-3.6424,-3.6405,-3.6407,-3.6408,-3.64,-3.6404,-3.6422,-3.6435,-3.6451,-3.6508,-3.6506,-3.6536,-3.6547,-3.6556,-3.6562,-3.6592,-3.6605,-3.6464,-3.6464,-3.6464,0,0,-3.6418,-3.6413,-3.6429,-3.6444,-3.6444,-3.6467,-3.6415,-3.6442,-3.6459,-3.6412,-3.6449,-3.6445,-3.6447,-3.6496,-3.6517,-3.6494,-3.6601,-3.6564,-3.6571,-3.6572,-3.66,-3.6613,-3.6625,-3.6468,-3.6468,-3.6467,0,0,-3.6504,-3.6503,-3.654,-3.6542,-3.6544,-3.6531,-3.654,-3.6534,-3.6528,-3.6566,-3.6531,-3.6552,-3.6585,-3.6587,-3.6593,-3.6684,-3.6655,-3.6691,-3.6746,-3.6776,-3.6787,-3.6796,-3.6828,-3.6839,-3.6697,-3.6698,-3.6698,0,-3.6554,-3.6588,-3.6563,-3.6593,-3.6601,-3.656,-3.6598,-3.6601,-3.6608,-3.6615,-3.6589,-3.663,-3.6629,-3.6678,-3.67,-3.6707,-3.6716,-3.6689,-3.6787,-3.6797,-3.6805,-3.6835,-3.6847,-3.6702,-3.6701,-3.6701,-3.67,0,-3.665,-3.6675,-3.6705,-3.6713,-3.6724,-3.6758,-3.6739,-3.6754,-3.6735,-3.6725,-3.6765,-3.6762,-3.6777,-3.6788,-3.677,-3.6835,-3.6821,-3.6793,-3.6746,-3.6823,-3.685,-3.6862,-3.6708,-3.6706,-3.6705,-3.6704,0,0,-3.6772,-3.6768,-3.6779,-3.6783,-3.6783,-3.6801,-3.6835,-3.685,-3.6863,-3.687,-3.6897,-3.6927,-3.6901,-3.6907,-3.689,-3.6916,-3.6988,-3.6884,-3.6884,-3.6902,-3.706,-3.7079,-3.7093,-3.697,-3.6972,-3.6974,-3.7059,0,-3.6855,-3.691,-3.6889,-3.6946,-3.6968,-3.6932,-3.6961,-3.6965,-3.6957,-3.6976,-3.6968,-3.6989,-3.6953,-3.6957,-3.6982,-3.6974,-3.7019,-3.6968,-3.6994,-3.6995,-3.6992,-3.7107,-3.7128,-3.7208,-3.7069,-3.7071,-3.7073,0,-3.6957,-3.6969,-3.7028,-3.7025,-3.7034,-3.706,-3.7073,-3.7091,-3.7096,-3.7088,-3.7098,-3.7075,-3.7108,-3.7065,-3.7109,-3.7075,-3.7086,-3.7084,-3.7086,-3.7085,-3.7036,-3.7108,-3.7233,-3.7244,-3.7089,-3.7088,-3.7087,0,-3.7038,-3.707,-3.7109,-3.7113,-3.7111,-3.7131,-3.7131,-3.7133,-3.7144,-3.7156,-3.7163,-3.7179,-3.7187,-3.72,-3.7183,-3.7153,-3.7231,-3.7186,-3.7225,-3.7225,-3.724,-3.7239,-3.7366,-3.7251,-3.7251,-3.7251,-3.725,0,-3.7131,-3.7168,-3.7145,-3.7169,-3.721,-3.7188,-3.7229,-3.7226,-3.7228,-3.7251,-3.7222,-3.7245,-3.7221,-3.7242,-3.7229,-3.7268,-3.7272,-3.7267,-3.7263,-3.7268,-3.7269,-3.7272,-3.7265,-3.7254,-3.7253,-3.7252,-3.7252,0,-3.7227,-3.7214,-3.7254,-3.725,-3.725,-3.7281,-3.7277,-3.73,-3.7292,-3.7321,-3.7327,-3.7314,-3.7337,-3.7322,-3.7345,-3.7336,-3.7387,-3.7376,-3.7385,-3.7381,-3.742,-3.7416,-3.7552,-3.7569,-3.7445,-3.7447,-3.7448,0,-3.7286,-3.7313,-3.7313,-3.7327,-3.7329,-3.7351,-3.7362,-3.7343,-3.7356,-3.7364,-3.7386,-3.7406,-3.7421,-3.746,-3.7453,-3.747,-3.7458,-3.7505,-3.7461,-3.7466,-3.7457,-3.7455,-3.7457,-3.7513,-3.7515,-3.7516,-3.7517,0,-3.7391,-3.7383,-3.74,-3.7416,-3.7431,-3.7443,-3.7452,-3.7465,-3.7445,-3.7461,-3.7485,-3.7497,-3.7521,-3.7541,-3.7557,-3.7558,-3.7534,-3.7532,-3.7541,-3.7546,-3.7549,-3.7546,-3.7407,-3.7528,-3.7526,-3.7526,-3.7525,-3.7525,-3.7468,-3.7492,-3.7495,-3.7516,-3.7522,-3.7531,-3.7552,-3.7548,-3.7566,-3.7584,-3.7572,-3.76,-3.7605,-3.7623,-3.7628,-3.7649,-3.763,-3.7645,-3.7648,-3.7651,-3.7656,-3.7548,-3.7652,-3.7652,-3.7652,-3.7652,-3.7651,0,-3.757,-3.7572,-3.7591,-3.7605,-3.7622,-3.76,-3.761,-3.7625,-3.765,-3.7657,-3.7673,-3.7701,-3.7721,-3.7717,-3.7736,-3.7754,-3.7744,-3.7759,-3.7756,-3.7757,-3.7672,-3.7661,-3.7767,-3.7767,-3.7767,-3.7767,-3.7767,-3.7767,-3.7625,-3.7663,-3.7657,-3.7698,-3.7699,-3.7726,-3.7733,-3.7742,-3.7748,-3.778,-3.7797,-3.7794,-3.7797,-3.7816,-3.7835,-3.7833,-3.784,-3.786,-3.7854,-3.7774,-3.7763,-3.7752,-3.7741,-3.7862,-3.7862,-3.7936,-3.7937,-3.7938]},{"header":{"parameterUnit":"m.s-1","parameterCategory":1,"la1":30.2991,"la2":30.254,"lo1":-89.0895,"lo2":-89.0444,"dy":0.0017,"dx":0.0017,"nx":28,"ny":28,"refTime":"2025-04-28T03:00:00:Z","depth":0,"parameterNumber":3,"parameterNumberName":"V-component_of_WINDS"},"data":[0,0,0,0,0,0,0,0,0,0,0,0,0,0,0,0,0,0,0,0,0,0,0,0,0,0,0,0,0,0,0,0,0,0,0,0,0,0,0,0,0,0,0,0,0,0,0,0,0,0,0,0,0,0,0,0,0,0,3.5245,3.5245,0,3.5296,3.5297,3.5297,3.5363,3.5364,3.5365,3.5366,3.5415,3.5415,3.5415,0,0,0,0,0,0,0,0,0,0,0,0,0,3.5201,3.5202,3.5245,3.5245,3.5246,3.5296,3.5297,3.5297,3.5363,3.5364,3.5365,3.5367,3.5415,3.5415,3.5415,0,0,0,0,0,0,0,0,0,0,0,0,0,3.5233,3.5202,3.5245,3.5285,3.5289,3.5296,3.5297,3.5298,3.5363,3.5364,3.5366,3.5367,3.5415,3.5415,3.5415,3.5386,0,0,3.5417,3.5417,0,0,0,0,0,0,0,0,3.5231,3.5234,3.5278,3.5282,3.5287,3.5325,3.5299,3.5327,3.5362,3.5335,3.5366,3.5368,3.5383,3.5386,3.5392,3.5388,3.539,3.5417,3.5417,3.5417,3.5417,0,0,0,0,0,0,0,3.5229,3.5233,3.5265,3.5279,3.5284,3.53,3.5306,3.5305,3.5349,3.5337,3.5342,3.5347,3.5386,3.5392,3.5394,3.5391,3.5417,3.5417,3.5417,3.5418,3.5366,3.5364,0,0,0,0,0,0,3.5221,3.523,3.5263,3.5267,3.5262,3.5299,3.5306,3.5311,3.5349,3.5357,3.5346,3.535,3.539,3.5393,3.5396,3.5365,3.5417,3.5418,3.5418,3.5368,3.5366,3.5364,0,0,0,0,0,0,3.522,3.5223,3.5261,3.525,3.5256,3.5298,3.5303,3.5311,3.5317,3.5356,3.5364,3.5344,3.5392,3.5395,3.5388,3.5367,3.5418,3.5418,3.5369,3.5367,3.5365,3.5301,0,0,0,0,0,0,3.5218,3.5223,3.5212,3.5249,3.5256,3.5253,3.5302,3.5311,3.5318,3.5324,3.5356,3.5363,3.5393,3.5387,3.5389,3.5369,3.5419,3.5372,3.5368,3.5365,3.5305,3.5296,3.5289,0,0,0,0,0,3.5217,3.5191,3.5211,3.5215,3.5244,3.5252,3.5256,3.5292,3.5316,3.5306,3.5331,3.5362,3.5369,3.5386,3.5388,3.5368,3.5373,3.5369,3.5366,3.5308,3.5298,3.5289,0,0,0,0,0,0,3.5149,3.5197,3.522,3.5205,3.5224,3.5263,3.5251,3.528,3.5291,3.5296,3.534,3.5346,3.5334,3.535,3.5368,3.5342,3.5376,3.5372,3.5332,3.5322,3.5314,3.531,3.5419,0,0,0,0,0,3.5132,3.5136,3.5177,3.516,3.5169,3.5208,3.5213,3.524,3.526,3.5268,3.5293,3.5311,3.5318,3.5321,3.5329,3.5308,3.5316,3.5295,3.5287,3.528,3.5277,3.5267,3.5259,3.5352,3.5352,3.5352,0,0,3.5098,3.5125,3.5124,3.5147,3.5165,3.5167,3.5214,3.5214,3.5216,3.5268,3.5263,3.5282,3.5305,3.5291,3.5286,3.5304,3.5253,3.5276,3.527,3.527,3.5263,3.5254,3.5246,3.5349,3.535,3.535,0,0,3.5036,3.5057,3.5046,3.5063,3.5091,3.5117,3.5114,3.5149,3.5164,3.5161,3.52,3.5202,3.5213,3.5228,3.5237,3.5183,3.5212,3.5184,3.5142,3.5133,3.5125,3.5119,3.51,3.5093,3.518,3.518,3.518,0,3.499,3.4995,3.5036,3.5034,3.5043,3.5093,3.5082,3.5096,3.5124,3.5129,3.5149,3.5164,3.5183,3.5173,3.516,3.5166,3.5164,3.518,3.5123,3.5118,3.5112,3.5094,3.5087,3.5177,3.5177,3.5177,3.5178,0,3.4937,3.494,3.4928,3.4955,3.4963,3.4956,3.4996,3.4999,3.5025,3.5049,3.5045,3.507,3.5085,3.5084,3.5109,3.5079,3.5089,3.5116,3.5151,3.5099,3.5083,3.5077,3.5172,3.5173,3.5174,3.5175,0,0,3.4833,3.4885,3.488,3.4893,3.4927,3.493,3.4925,3.4941,3.4943,3.4961,3.4958,3.4966,3.4991,3.5001,3.5028,3.502,3.4976,3.5048,3.5049,3.5034,3.4945,3.4924,3.4916,3.4996,3.4995,3.4994,3.4943,0,3.4778,3.4775,3.4812,3.4798,3.4802,3.4849,3.4845,3.4865,3.4888,3.4894,3.4919,3.4924,3.4957,3.4963,3.4957,3.4983,3.4959,3.4987,3.4993,3.4993,3.4986,3.4908,3.4886,3.4836,3.4937,3.4936,3.4935,0,3.4713,3.4729,3.4716,3.4752,3.4755,3.4751,3.4769,3.4774,3.4798,3.4815,3.4827,3.4859,3.4856,3.489,3.4887,3.4905,3.491,3.4923,3.4922,3.4924,3.496,3.4907,3.4821,3.4814,3.4925,3.4926,3.4927,0,3.4639,3.4657,3.4652,3.4662,3.4704,3.47,3.4717,3.4743,3.475,3.4765,3.4771,3.4785,3.4792,3.4802,3.4836,3.4858,3.4829,3.4866,3.4843,3.4842,3.4835,3.4834,3.4748,3.4838,3.4838,3.4838,3.4838,0,3.4574,3.4564,3.462,3.4616,3.4607,3.465,3.4639,3.466,3.4683,3.4684,3.4725,3.4725,3.4771,3.4776,3.4802,3.4796,3.4799,3.4812,3.4819,3.4809,3.4807,3.4812,3.4816,3.4836,3.4836,3.4837,3.4837,0,3.4489,3.4526,3.4524,3.4564,3.4574,3.4565,3.46,3.4598,3.4624,3.4625,3.4627,3.4668,3.4676,3.4711,3.4727,3.4745,3.473,3.4744,3.4722,3.4727,3.4702,3.4704,3.4616,3.4607,3.4701,3.4701,3.47,0,3.4445,3.4439,3.4479,3.4484,3.45,3.4506,3.4515,3.4557,3.4563,3.4591,3.4586,3.4597,3.4609,3.4619,3.4649,3.4662,3.4677,3.4645,3.4679,3.4668,3.4676,3.4676,3.4676,3.4638,3.4636,3.4635,3.4635,0,3.4363,3.4382,3.4393,3.4411,3.442,3.4435,3.4453,3.4454,3.4501,3.4507,3.4516,3.4525,3.4543,3.4554,3.4572,3.4588,3.4619,3.4624,3.462,3.4608,3.4596,3.4602,3.4702,3.4626,3.4627,3.4627,3.4628,3.4628,3.4297,3.4294,3.4323,3.4334,3.4352,3.4369,3.4369,3.4396,3.4405,3.4424,3.4448,3.4455,3.4479,3.4507,3.4521,3.4526,3.4543,3.4536,3.4535,3.4532,3.4527,3.4595,3.4529,3.453,3.453,3.453,3.453,0,3.4218,3.4239,3.4249,3.4273,3.4282,3.4312,3.4334,3.4339,3.4345,3.4366,3.4377,3.4388,3.4399,3.443,3.4445,3.4443,3.4457,3.4445,3.4445,3.4449,3.4511,3.4513,3.4433,3.4433,3.4433,3.4433,3.4433,3.4433,3.4177,3.4174,3.4197,3.4203,3.4224,3.4232,3.4242,3.4257,3.4274,3.4285,3.4295,3.4316,3.4341,3.4358,3.4369,3.4378,3.4381,3.4364,3.4378,3.4435,3.4444,3.4453,3.4456,3.4365,3.4365,3.4316,3.4315,3.4315]}]]